Location: Twin Oaks Observatory
(35.2860°N, 85.1951°W)
Time: 03:26:52
(UTC-05:00)

Daily predictions for brighter satellites

Satellite Brightness Start Highest point End
(mag) Time Altitude Azimuth Time Altitude Azimuth Time Altitude Azimuth
CZ-3 R/B 4.4 01:19:36 10° WSW 02:33:08 55° SE 02:42:44 10° E
SJ 16-02 4.0 04:23:33 18° ENE 04:23:33 18° ENE 04:25:04 10° NE
Cosmos 1980 Rocket 3.3 04:27:27 41° ENE 04:27:27 41° ENE 04:31:48 10° NE
Centaur D-1A AC-31 3.1 04:32:42 37° SE 04:32:42 37° SE 04:41:04 10° ESE
ATLAS 5 CENTAUR R/B 3.8 04:35:40 21° ESE 04:35:52 21° ESE 04:39:18 10° ENE
Cosmos 1697 Rocket 3.9 04:58:27 31° N 04:58:27 31° N 05:01:29 10° NNE
Hubble Space Telescope 2.7 05:03:15 23° SE 05:03:15 23° SE 05:05:21 10° ESE
SL-16 R/B 4.0 04:57:51 10° SSE 05:02:38 29° ESE 05:07:25 10° NE
Cosmos 1934 Rocket 3.9 05:03:18 22° S 05:07:34 89° E 05:13:59 10° N
IDEFIX/ARIANE 42P 4.4 05:03:16 10° NE 05:07:50 30° E 05:12:21 10° SSE
COSMOS 2455 4.1 05:04:57 10° N 05:10:35 39° ENE 05:16:10 10° SE
CENTAUR R/B 3.9 05:13:04 33° SW 05:13:04 33° SW 05:18:22 10° S
Milstar 3 Cent rocket 4.4 05:09:40 12° S 05:12:42 18° SE 05:17:36 10° ESE
Cosmos 372 Rocket 3.8 05:12:17 71° S 05:12:50 84° ESE 05:17:58 10° NNE
Aureole 1 Rocket 3.7 05:11:03 10° NNW 05:18:04 68° WSW 05:23:22 10° S
Okean O Rocket 3.1 05:14:26 10° N 05:16:24 25° N 05:16:24 25° N
BREEZE-M DEB (TANK) 4.0 05:20:56 54° WSW 05:21:52 62° SW 05:36:55 10° SE
Cosmos 1125 Rocket 3.3 05:21:16 58° SSW 05:22:17 80° WNW 05:27:30 10° NNE
Cosmos 2123 Rocket 3.9 05:18:23 10° N 05:24:39 87° E 05:30:56 10° S
USA 215 3.7 05:22:26 10° SSE 05:28:26 38° SW 05:28:44 38° WSW
ASTRO E2 4.5 05:30:54 21° S 05:30:54 21° S 05:33:08 10° SE
Cosmos 1821 Rocket 4.3 05:32:45 39° WNW 05:32:45 39° WNW 05:38:12 10° N
CZ-4B R/B 3.2 05:27:02 10° N 05:32:25 60° WNW 05:34:57 31° SW
OAO 3 Rocket 3.8 05:37:18 39° SW 05:37:49 40° SSW 05:42:27 10° SE
Lacrosse 5 rocket 1.4 05:38:16 53° SSW 05:38:16 53° SSW 05:41:55 10° SSE
Cosmos 489 Rocket 4.4 05:32:53 17° SSW 05:37:55 70° WNW 05:44:10 10° NNE
Cosmos 2242 Rocket 3.9 05:34:18 10° S 05:38:49 70° E 05:43:24 10° NNE
SEDSat Delta rocket 3.5 05:43:11 39° SW 05:44:34 53° S 05:48:57 10° ESE
Cosmos 2263 Rocket 4.0 05:41:10 10° N 05:46:13 32° ENE 05:51:14 10° SE
Cosmos 405 Rocket 2.7 05:44:47 10° S 05:48:45 90° SSE 05:52:40 10° N
CZ-2C R/B 3.2 05:47:17 10° NNE 05:52:21 58° E 05:57:27 10° S
BREEZE-M DEB (TANK) 1.4 05:54:26 46° NW 05:55:07 82° NE 05:57:15 10° SE
IRS-1C Rocket 4.3 05:50:40 10° N 05:55:40 45° WNW 06:00:38 10° SW
Radarsat Rocket 4.3 05:53:14 10° NNE 05:59:07 72° ESE 06:05:28 10° S
Cosmos 2322 Rocket 2.2 05:54:18 10° SSW 05:59:58 88° WNW 06:05:42 10° NNE
SJ 16-02 2.6 06:00:37 23° NW 06:00:37 23° NW 06:03:33 10° NNW
Cosmos 1862 Rocket 3.4 05:59:29 10° SSW 06:03:47 71° W 06:08:10 10° N
DELTA 2 R/B(2) 4.1 06:04:36 38° N 06:04:36 38° N 06:06:37 10° ENE
Cosmos 1733 Rocket 2.9 06:00:17 10° N 06:04:41 83° W 06:09:05 10° S
Cosmos 2360 Rocket 3.5 06:03:03 10° S 06:08:21 42° ESE 06:13:39 10° NE
Cosmos 1980 Rocket 3.3 06:09:17 21° WNW 06:10:37 22° WNW 06:14:59 10° N
Cosmos 1269 Rocket 3.9 06:05:52 10° NNW 06:11:07 69° WSW 06:16:21 10° S
EO 1 Del DPAF 4.3 06:07:39 10° SSE 06:11:20 48° ENE 06:15:02 10° N
COSMO-SKYMED 1 2.5 06:08:20 10° S 06:12:38 70° WSW 06:16:59 10° NNW
Cosmos 2227 4.2 06:07:24 10° NNW 06:12:57 61° WSW 06:18:27 10° S
CZ-2C R/B 3.9 06:08:36 10° S 06:13:09 50° W 06:17:39 10° NNW
Landsat 4 3.9 06:11:35 10° SSE 06:15:17 74° ENE 06:19:00 10° N
CZ-3 R/B 2.8 06:03:27 18° W 06:16:32 50° SSW 06:22:00 10° SE
Okean-O 2.6 06:12:53 10° N 06:17:16 62° WNW 06:21:37 10° SSW
Cosmos 1605 Rocket 4.5 06:12:31 10° SW 06:18:02 35° WNW 06:23:32 10° NNW
ATLAS 5 CENTAUR R/B 2.4 06:17:17 17° WSW 06:20:10 35° NW 06:24:37 10° NNE
Cosmos 2100 Rocket 3.9 06:18:08 10° S 06:24:17 81° W 06:30:27 10° N
Cosmos 405 3.7 06:21:25 10° NNW 06:24:37 31° W 06:27:48 10° SSW
NOAA 6 4.4 06:22:00 10° N 06:26:50 42° WNW 06:31:38 10° SW
PAYLOAD A 4.3 06:24:24 10° N 06:28:55 41° WNW 06:33:33 10° SW
Cosmos 1441 Rocket 4.2 06:26:07 10° SW 06:29:31 27° WNW 06:32:55 10° NNW
DMSP B5D1-3 4.5 06:24:30 10° SSE 06:29:35 83° WSW 06:34:42 10° NNW
GENESIS II 4.2 06:33:38 10° SW 06:37:30 59° WNW 06:41:23 10° NNE
MSX 3.9 06:33:24 10° N 06:39:03 59° WNW 06:44:43 10° SSW
Hubble Space Telescope 2.2 06:38:57 10° WSW 06:42:31 28° S 06:46:07 10° SE
ISS -1.8 06:39:54 10° SSW 06:42:50 31° SE 06:45:46 10° ENE
Cosmos 1782 2.9 06:39:51 10° SSW 06:43:48 54° W 06:47:46 10° N
Cosmos 2322 4.2 06:39:07 10° S 06:44:42 67° ESE 06:50:19 10° NNE
SL-16 R/B 2.9 06:41:28 10° SW 06:46:33 34° WNW 06:51:40 10° N
IDEFIX/ARIANE 42P 3.4 06:42:56 10° NNW 06:47:18 28° WNW 06:51:38 10° SW
Cosmos 1459 Rocket 4.1 06:42:45 10° SSW 06:48:49 54° W 06:55:02 10° N
Intelsat 5-1 Rocket 4.3 06:40:50 10° WSW 06:49:48 30° SSW 06:53:48 10° SE
Cosmos 2173 Rocket 4.1 06:45:10 10° SSW 06:51:11 52° W 06:57:10 10° N
Cosmos 2016 Rocket 4.0 06:45:36 10° S 06:51:52 75° W 06:58:16 10° N
CZ-4 R/B 3.1 06:48:18 10° NNE 06:51:54 38° E 06:55:31 10° SSE
SJ-12 4.3 06:49:12 10° N 06:53:09 44° WNW 06:57:03 10° SW
Thor Agena Rocket 4.4 06:48:28 10° SSE 06:53:37 58° ENE 06:58:45 10° N
Cosmos 2061 Rocket 4.1 06:49:12 10° SSW 06:55:16 57° W 07:01:21 10° N
Cosmos 1802 Rocket 4.1 06:49:59 10° SSW 06:56:15 57° W 07:02:30 10° N
COSMOS 2455 3.7 06:51:12 10° NW 06:56:18 29° WSW 07:01:21 10° SSW
